Wind_Speed
40 41 42 42 41 42 43 44 44 44 44 44 44 45 45 45 46 46 47 46 46 45 45 45 45 46 46 47 48 48 49 49 48 46 45 44 44 44 44 45 45 46 46
39 40 41 41 42 42 42 42 43 43 43 43 43 44 43 43 43 45 45 45 45 45 45 45 46 47 47 48 48 48 48 47 47 45 44 44 43 44 44 45 46 46 46
37 38 39 38 39 39 40 41 41 42 42 42 41 41 41 41 41 43 44 43 44 44 44 45 45 47 47 48 47 47 46 45 44 44 43 43 43 44 45 45 46 47 46
35 36 37 37 38 38 39 39 40 41 42 41 41 41 41 41 40 41 42 43 44 44 44 45 46 47 47 47 45 45 44 44 44 44 44 44 44 45 45 45 45 45 45
35 35 36 35 37 38 38 38 40 40 41 41 40 40 40 40 40 40 42 43 43 44 45 45 45 45 44 44 44 43 43 43 44 44 43 44 44 44 44 44 44 43 44
35 35 36 36 36 36 37 38 39 39 39 39 39 39 39 40 40 40 40 41 42 42 43 43 44 44 44 44 43 43 43 43 43 43 43 43 43 42 42 43 43 43 43
35 35 36 36 36 37 37 37 37 37 37 37 37 37 38 39 40 39 39 41 42 42 42 42 42 43 44 44 43 42 42 42 41 41 41 40 40 41 41 42 42 42 42
34 35 35 35 36 36 37 37 37 36 37 36 37 38 38 39 40 41 40 40 41 41 42 42 42 41 42 41 41 41 40 40 40 40 40 39 39 40 41 41 41 41 40
33 34 34 35 35 36 36 36 36 36 36 37 37 38 38 39 40 40 39 40 40 40 41 40 39 39 39 39 38 38 38 38 38 39 39 39 38 38 39 40 39 39 38
33 34 34 34 34 35 35 35 35 35 35 35 36 37 38 39 38 38 40 40 39 38 38 38 38 38 38 37 36 36 36 36 37 38 38 37 37 38 38 38 38 37 37
32 32 33 33 34 34 35 35 35 35 35 35 36 36 37 38 38 38 39 39 38 37 37 36 36 36 36 35 34 34 35 35 36 36 36 37 36 37 37 37 37 36 36
33 33 34 34 34 34 35 36 36 36 36 35 35 35 36 37 37 38 38 38 38 37 35 35 35 36 35 34 34 34 34 34 35 35 35 35 35 36 36 36 36 35 34
33 33 34 35 35 35 35 36 36 36 36 36 35 35 35 35 36 36 37 37 36 36 35 34 34 34 34 33 33 33 33 33 33 33 34 34 34 34 34 33 33 32 32
33 34 34 35 34 34 35 35 35 35 35 35 35 35 35 34 35 36 36 35 35 35 34 33 32 32 31 31 32 32 32 32 32 33 33 33 33 32 32 31 30 29 29
34 34 35 35 34 33 33 32 32 33 33 33 33 33 34 34 34 34 33 33 33 33 31 31 30 29 29 30 31 31 30 30 30 31 31 31 30 30 29 28 27 27 27
34 34 34 34 33 32 32 31 31 31 31 31 32 33 33 32 32 32 31 31 30 30 30 29 28 29 29 29 29 29 29 29 29 29 28 28 27 26 26 25 25 24 24
32 32 33 32 31 31 31 30 30 30 30 29 30 31 31 31 30 30 30 30 29 29 28 27 27 27 27 28 28 27 27 27 26 26 25 25 24 24 23 23 22 22 21
29 30 31 30 30 30 29 30 30 29 29 29 29 29 30 30 29 28 27 27 27 27 26 25 25 25 25 25 25 25 24 24 23 23 23 23 22 22 22 21 20 19 19
27 28 29 29 29 29 29 29 29 29 29 29 28 28 28 28 27 26 26 26 25 24 24 23 23 23 23 22 22 22 22 21 21 21 20 20 20 20 20 19 18 18 18
27 27 27 27 27 27 27 28 28 28 29 28 28 27 27 26 25 25 24 24 23 23 22 22 22 22 22 21 20 20 20 20 19 19 19 19 19 19 18 17 17 17 17
26 25 25 25 25 26 26 27 27 27 27 26 26 26 25 24 23 23 23 22 22 22 22 21 21 22 21 20 19 19 19 18 18 18 18 18 18 17 17 17 17 16 15
25 24 24 24 24 24 24 24 25 25 25 25 24 23 23 23 23 23 22 21 21 21 21 21 21 21 20 19 18 17 17 17 17 17 17 17 17 16 16 16 15 14 13
23 23 23 22 23 23 23 23 23 22 21 21 21 21 21 21 21 21 21 20 20 20 20 20 20 20 18 17 17 17 16 16 16 16 16 16 16 16 15 14 13 13 12
22 22 22 22 22 23 22 21 21 21 20 19 20 19 20 20 20 20 20 20 20 19 19 19 19 18 18 17 16 16 15 15 16 16 17 17 16 15 13 13 12 12 11
20 20 20 21 21 21 21 20 20 20 20 19 19 19 18 18 18 19 19 19 20 20 19 19 18 17 17 16 16 15 15 15 16 16 16 16 15 13 12 11 11 11 10
18 18 18 19 19 20 20 19 19 19 19 19 18 18 18 18 18 18 18 18 18 18 18 18 17 17 16 16 15 15 15 15 15 15 15 14 13 12 11 11 10 9 9
Wind_Direction
250 252 252 253 253 253 255 255 257 259 260 261 264 267 268 269 271 273 274 275 275 276 278 279 280 283 285 286 286 287 288 288 289 289 289 291 292 293 294 295 295 296 295
253 255 255 255 255 255 254 256 259 261 262 263 266 268 269 270 271 273 275 276 277 277 278 278 279 281 284 285 286 286 287 288 289 289 289 290 292 292 293 295 296 296 297
256 256 257 256 257 256 257 259 261 262 264 266 267 268 270 271 271 271 273 275 275 276 277 278 280 281 282 285 286 286 286 287 288 289 288 290 291 292 293 294 295 296 296
257 256 257 259 259 259 258 260 262 264 265 266 267 269 271 272 273 271 271 273 274 275 276 278 279 280 282 284 285 285 286 286 287 288 288 290 290 292 293 294 294 294 295
258 258 258 258 259 261 261 262 263 265 266 267 268 269 271 272 273 272 271 272 273 274 276 278 279 280 282 283 283 284 285 285 287 288 289 290 291 291 292 293 293 294 296
258 259 258 259 261 261 262 263 264 265 266 268 270 270 271 271 272 273 272 272 273 274 276 277 279 280 280 281 282 283 284 285 286 288 290 291 292 292 293 293 294 296 296
256 257 258 260 261 262 263 265 266 265 267 268 269 270 271 271 272 273 275 274 274 275 276 277 278 279 280 280 281 281 283 285 287 289 291 292 292 293 294 295 296 298 297
259 259 260 261 263 263 263 264 266 266 267 268 269 271 271 271 272 274 275 276 276 276 276 277 278 279 280 279 279 281 283 285 287 291 292 292 293 294 295 296 296 297 297
262 262 263 264 265 264 264 264 265 267 268 269 269 270 272 272 273 275 275 277 279 278 277 277 278 279 279 278 279 281 283 285 288 290 293 293 293 294 296 297 298 297 298
263 263 264 265 265 265 264 265 266 267 269 270 270 270 272 272 274 275 277 280 280 279 279 278 278 277 278 277 277 280 284 287 289 291 292 291 293 294 295 297 298 298 299
264 265 264 263 265 267 266 267 268 270 271 271 270 271 272 272 273 276 279 279 280 280 280 279 278 278 277 277 278 281 285 288 290 291 291 292 293 294 295 296 297 299 300
265 265 265 265 266 268 270 269 269 270 271 270 270 271 273 273 274 276 278 279 280 280 279 278 277 277 277 277 280 283 286 289 290 290 290 291 293 295 295 296 298 299 300
267 267 267 267 267 268 270 270 269 269 271 269 269 270 271 273 275 277 279 279 280 279 279 277 277 278 277 277 280 283 286 288 289 289 290 291 293 295 296 297 297 298 300
268 268 268 268 268 270 271 270 269 269 270 270 269 271 272 274 276 278 278 278 278 277 278 276 277 278 278 279 282 284 285 287 290 291 292 292 294 296 297 296 298 300 302
269 268 268 268 268 269 270 269 269 270 271 270 270 271 272 274 276 277 277 277 276 276 277 276 276 277 279 280 283 285 287 290 292 292 292 293 294 294 295 296 300 302 304
269 268 269 269 268 269 268 267 267 269 271 270 269 271 274 275 275 276 275 275 275 276 277 277 277 279 280 283 286 286 289 291 292 293 295 295 295 296 297 297 300 303 304
269 268 268 267 267 267 266 266 266 268 269 269 270 272 273 274 274 274 273 273 274 275 276 276 277 279 281 285 288 289 290 290 291 293 295 297 297 297 298 299 302 304 306
270 269 267 265 265 265 264 264 265 266 267 267 270 271 271 272 272 272 272 272 272 272 273 275 276 279 283 287 289 290 290 291 291 293 295 298 299 299 299 299 301 303 305
271 271 269 268 267 265 264 266 265 266 267 268 269 268 268 269 269 270 270 270 270 270 273 276 278 281 285 287 288 288 289 290 292 295 298 300 299 298 298 299 301 303 304
272 272 271 269 267 265 265 267 267 267 266 268 267 266 266 268 269 270 269 268 268 272 276 278 279 280 284 284 284 285 288 290 292 295 299 300 298 297 296 298 300 302 303
272 270 270 267 266 266 266 265 266 266 265 267 267 265 267 269 269 269 270 269 270 273 275 277 278 279 280 280 281 284 286 288 291 295 298 299 298 298 297 298 301 303 304
271 269 269 267 265 264 265 266 267 266 265 265 263 263 266 267 267 267 269 271 271 272 272 272 275 277 277 276 277 279 283 287 290 295 298 298 297 298 299 297 298 301 303
270 267 266 266 265 264 265 265 265 266 266 262 260 261 264 266 267 267 268 270 271 272 272 273 274 273 272 272 273 275 280 285 289 292 295 296 295 295 296 295 296 298 301
269 267 266 266 265 263 262 262 265 267 264 260 258 261 263 264 265 266 267 268 270 272 274 274 272 268 267 269 270 271 276 282 286 289 291 292 292 292 292 292 295 297 297
264 264 265 266 264 261 262 265 267 266 263 260 261 262 262 261 263 266 267 267 269 272 272 271 267 264 264 265 267 270 274 280 285 289 290 289 289 289 290 292 296 297 295
261 261 262 265 264 262 262 264 264 262 261 260 261 260 260 261 264 266 268 269 269 270 270 268 264 263 263 264 267 270 273 277 283 287 289 289 288 288 291 292 293 295 297
Height
5646 5649 5651 5654 5656 5659 5662 5665 5667 5668 5670 5672 5674 5674 5674 5675 5675 5675 5675 5674 5674 5673 5673 5672 5672 5671 5670 5667 5665 5663 5660 5658 5657 5656 5652 5649 5646 5644 5640 5637 5633 5629 5625
5637 5639 5642 5644 5647 5649 5652 5655 5656 5658 5660 5661 5662 5663 5663 5663 5663 5663 5663 5663 5662 5662 5662 5661 5661 5660 5658 5656 5653 5651 5649 5646 5644 5643 5641 5638 5635 5632 5629 5625 5621 5617 5613
5628 5630 5632 5634 5636 5639 5642 5644 5646 5647 5649 5650 5651 5652 5652 5653 5652 5652 5652 5652 5651 5651 5651 5650 5649 5648 5646 5644 5642 5639 5637 5635 5632 5631 5629 5627 5624 5621 5617 5614 5610 5605 5601
5619 5621 5623 5624 5627 5629 5631 5633 5635 5637 5638 5639 5640 5641 5641 5641 5641 5641 5641 5641 5640 5640 5640 5639 5638 5636 5634 5632 5630 5628 5625 5623 5621 5619 5617 5615 5612 5609 5605 5602 5598 5593 5589
5609 5611 5613 5615 5617 5619 5621 5622 5624 5626 5627 5629 5629 5630 5630 5630 5630 5630 5630 5630 5629 5629 5628 5627 5626 5624 5623 5621 5618 5616 5614 5612 5609 5607 5605 5602 5600 5596 5593 5589 5585 5581 5577
5600 5602 5604 5605 5607 5609 5610 5613 5614 5615 5616 5618 5619 5619 5619 5619 5619 5619 5619 5618 5618 5617 5617 5616 5614 5613 5611 5609 5606 5604 5602 5600 5598 5595 5593 5590 5587 5584 5581 5576 5573 5569 5567
5591 5593 5595 5596 5598 5599 5601 5603 5604 5605 5606 5607 5608 5608 5608 5608 5608 5607 5607 5607 5606 5605 5605 5604 5603 5601 5599 5597 5595 5593 5591 5588 5586 5584 5582 5578 5576 5573 5570 5566 5561 5557 5553
5582 5584 5586 5587 5588 5590 5591 5593 5594 5595 5596 5597 5597 5597 5597 5597 5596 5596 5596 5596 5595 5594 5593 5592 5591 5589 5587 5586 5584 5582 5580 5578 5576 5574 5571 5568 5565 5562 5558 5554 5550 5546 5543
5573 5574 5576 5578 5579 5580 5581 5582 5584 5585 5586 5586 5586 5586 5586 5585 5585 5585 5584 5584 5584 5582 5581 5580 5579 5577 5576 5575 5574 5572 5570 5568 5566 5563 5560 5557 5554 5551 5547 5543 5540 5536 5533
5564 5565 5566 5568 5569 5570 5571 5572 5573 5574 5575 5576 5576 5576 5575 5575 5574 5574 5573 5573 5572 5572 5571 5570 5568 5567 5565 5564 5563 5562 5561 5559 5556 5554 5551 5548 5545 5541 5537 5533 5530 5526 5522
5555 5556 5557 5558 5559 5560 5561 5562 5563 5564 5565 5566 5566 5566 5565 5564 5564 5563 5562 5562 5561 5560 5559 5559 5558 5556 5556 5555 5553 5552 5550 5548 5546 5544 5541 5539 5535 5532 5529 5525 5521 5517 5513
5546 5547 5548 5549 5549 5550 5551 5552 5553 5554 5554 5555 5555 5555 5554 5554 5553 5553 5552 5551 5550 5549 5549 5548 5547 5547 5545 5545 5544 5543 5541 5539 5536 5534 5532 5529 5526 5523 5520 5516 5513 5508 5505
5537 5537 5538 5539 5539 5540 5541 5542 5542 5543 5543 5544 5544 5544 5544 5544 5543 5542 5541 5540 5539 5539 5538 5538 5538 5537 5536 5535 5534 5533 5531 5529 5527 5524 5522 5520 5517 5514 5511 5508 5505 5501 5497
5528 5528 5528 5529 5529 5530 5530 5531 5531 5532 5533 5533 5533 5534 5534 5533 5533 5532 5531 5530 5529 5529 5529 5528 5528 5528 5527 5526 5525 5524 5522 5520 5518 5515 5513 5511 5508 5506 5503 5500 5497 5494 5490
5518 5518 5518 5519 5519 5520 5520 5520 5521 5522 5522 5523 5523 5523 5523 5523 5523 5522 5521 5521 5520 5520 5520 5520 5519 5519 5519 5518 5517 5516 5514 5512 5509 5507 5505 5503 5501 5498 5496 5493 5490 5487 5485
5507 5508 5508 5509 5509 5510 5510 5511 5511 5512 5512 5512 5513 5513 5513 5513 5513 5512 5512 5512 5511 5511 5511 5511 5511 5511 5510 5510 5509 5507 5506 5504 5502 5499 5498 5495 5493 5491 5489 5487 5484 5482 5479
5497 5498 5498 5499 5499 5500 5501 5502 5502 5503 5503 5503 5503 5504 5504 5504 5504 5504 5503 5503 5503 5503 5503 5503 5503 5503 5502 5502 5500 5499 5498 5496 5494 5492 5491 5489 5486 5484 5483 5481 5479 5477 5474
5488 5488 5488 5489 5489 5490 5491 5492 5493 5494 5494 5494 5494 5495 5495 5495 5495 5495 5496 5496 5496 5495 5495 5495 5495 5495 5494 5493 5492 5491 5490 5489 5488 5486 5484 5482 5480 5479 5477 5475 5474 5471 5469
5478 5478 5478 5479 5479 5480 5481 5482 5483 5484 5485 5486 5486 5486 5486 5487 5487 5488 5488 5488 5488 5488 5488 5488 5487 5487 5487 5486 5485 5485 5484 5483 5482 5480 5478 5477 5475 5474 5472 5470 5469 5467 5465
5469 5469 5469 5470 5470 5471 5472 5473 5474 5475 5476 5477 5478 5478 5479 5479 5480 5480 5480 5480 5481 5481 5481 5481 5480 5480 5480 5479 5479 5478 5478 5477 5476 5474 5473 5471 5470 5469 5467 5466 5465 5463 5461
5461 5461 5461 5462 5462 5463 5464 5465 5466 5466 5467 5468 5469 5470 5471 5472 5472 5473 5473 5473 5473 5474 5474 5474 5473 5473 5473 5473 5473 5472 5472 5471 5470 5469 5468 5467 5465 5464 5463 5462 5461 5459 5457
5453 5454 5454 5455 5455 5456 5457 5457 5458 5458 5459 5460 5461 5462 5462 5464 5465 5465 5466 5466 5466 5466 5466 5466 5466 5466 5466 5466 5467 5467 5466 5466 5465 5464 5463 5462 5461 5460 5459 5458 5457 5456 5454
5446 5446 5447 5448 5448 5449 5450 5450 5451 5451 5452 5452 5453 5454 5455 5456 5457 5458 5459 5459 5459 5459 5459 5459 5459 5459 5459 5460 5461 5461 5461 5461 5460 5460 5459 5458 5457 5456 5455 5454 5453 5452 5451
5438 5439 5439 5440 5441 5442 5443 5443 5444 5444 5445 5446 5447 5448 5449 5450 5450 5451 5452 5452 5453 5453 5453 5453 5453 5453 5454 5454 5455 5455 5456 5455 5455 5455 5454 5453 5453 5452 5451 5451 5450 5449 5448
5431 5432 5432 5433 5434 5435 5436 5436 5437 5438 5438 5439 5440 5441 5442 5443 5444 5445 5445 5446 5446 5446 5446 5446 5447 5447 5448 5449 5450 5450 5450 5450 5450 5450 5449 5449 5448 5448 5447 5447 5447 5446 5445
5425 5425 5426 5427 5427 5428 5429 5430 5431 5432 5433 5433 5434 5435 5436 5437 5438 5439 5439 5439 5440 5440 5440 5441 5441 5442 5443 5444 5444 5445 5445 5446 5445 5445 5445 5445 5445 5444 5444 5444 5444 5443 5443